Watertown, WI

10:07 PM CDT on September 25, 2016 (GMT -0500)
Watertown Municipal

Weather History for KRYV - November, 2012

Change the Weather History Date:

Wednesday, November 14, 2012

  Actual Average Record
Temperature  
Mean Temperature 36 °F -  
Max Temperature 44 °F 43 °F 72 °F (1971)
Min Temperature 27 °F 27 °F 2 °F (1986)
Degree Days  
Heating Degree Days 30    
Moisture  
Dew Point 27 °F    
Average Humidity 71    
Maximum Humidity 82    
Minimum Humidity 52    
Precipitation  
Precipitation 0.00 in - - ()
Sea Level Pressure  
Sea Level Pressure 30.39 in    
Wind  
Wind Speed 5 mph (SSE)    
Max Wind Speed 15 mph    
Max Gust Speed 20 mph    
Visibility 10 miles    
Events      
Averages and records for this station are not official NWS values.
T = Trace of Precipitation, MM = Missing Value Source: NWS Daily Summary

Daily Weather History Graph

Daily Weather History Graph

Search for Another Location

Airport or City:

Trip Planner

Search our weather history database for the weather conditions in past years. The results will help you decide how hot, cold, wet, or windy it might be!

Date:

Astronomy

Nov. 14, 2012 Rise Set
Actual Time 6:47 AM CST 4:31 PM CST
Civil Twilight 6:16 AM CST 5:01 PM CST
Nautical Twilight 5:42 AM CST 5:36 PM CST
Astronomical Twilight 5:08 AM CST 6:09 PM CST
Moon 7:37 AM CST (11/14) 5:17 PM CST (11/14)
Length of Visible Light 10h 45m
Length of Day
9h 44m
New Moon, 1% of the Moon is Illuminated
Nov 14
New Moon
Nov 20
First Quarter
Nov 28
Full
Dec 6
Last Quarter
Dec 13
New

Hourly Weather History & Observations

Time (CST) Temp. Windchill Dew Point Humidity Pressure Visibility Wind Dir Wind Speed Gust Speed Precip Events Conditions
12:35 AM 29.1 °F 25.4 °F 23.0 °F 78% 30.45 in 10.0 mi SSE 3.5 mph - N/A   Clear
12:55 AM 28.2 °F - 22.8 °F 80% 30.45 in 10.0 mi Calm Calm - N/A   Clear
1:15 AM 27.5 °F 23.6 °F 22.6 °F 82% 30.45 in 10.0 mi SSE 3.5 mph - N/A   Clear
1:35 AM 27.7 °F - 22.8 °F 82% 30.45 in 10.0 mi Calm Calm - N/A   Clear
1:55 AM 28.2 °F - 22.8 °F 80% 30.45 in 10.0 mi Calm Calm - N/A   Scattered Clouds
2:15 AM 28.9 °F - 23.5 °F 80% 30.45 in 10.0 mi Calm Calm - N/A   Scattered Clouds
2:35 AM 29.3 °F - 23.9 °F 80% 30.45 in 10.0 mi Calm Calm - N/A   Mostly Cloudy
2:55 AM 29.3 °F 25.6 °F 23.7 °F 80% 30.45 in 10.0 mi SSE 3.5 mph - N/A   Scattered Clouds
3:15 AM 29.1 °F 25.4 °F 23.7 °F 80% 30.44 in 10.0 mi SSE 3.5 mph - N/A   Scattered Clouds
3:35 AM 28.9 °F 25.2 °F 23.5 °F 80% 30.44 in 10.0 mi SSE 3.5 mph - N/A   Clear
3:55 AM 28.8 °F 25.0 °F 23.5 °F 81% 30.43 in 10.0 mi SSE 3.5 mph - N/A   Clear
4:15 AM 29.3 °F - 23.9 °F 80% 30.44 in 10.0 mi Calm Calm - N/A   Scattered Clouds
4:35 AM 29.5 °F - 23.9 °F 80% 30.45 in 10.0 mi Calm Calm - N/A   Mostly Cloudy
4:55 AM 30.0 °F - 24.1 °F 79% 30.45 in 10.0 mi Calm Calm - N/A   Mostly Cloudy
5:15 AM 30.0 °F 26.5 °F 24.6 °F 80% 30.45 in 10.0 mi SE 3.5 mph - N/A   Overcast
5:35 AM 30.0 °F 26.5 °F 24.4 °F 80% 30.45 in 10.0 mi SE 3.5 mph - N/A   Overcast
5:55 AM 30.0 °F 26.5 °F 24.8 °F 81% 30.44 in 10.0 mi SSE 3.5 mph - N/A   Mostly Cloudy
6:15 AM 30.9 °F 25.2 °F 25.3 °F 80% 30.44 in 10.0 mi SE 5.8 mph - N/A   Mostly Cloudy
6:35 AM 31.1 °F 25.4 °F 25.7 °F 80% 30.44 in 10.0 mi SSE 5.8 mph - N/A   Overcast
6:55 AM 31.5 °F 26.8 °F 25.7 °F 79% 30.44 in 10.0 mi SSE 4.6 mph - N/A   Overcast
7:15 AM 32.0 °F 26.4 °F 25.7 °F 78% 30.44 in 10.0 mi SSE 5.8 mph - N/A   Overcast
7:35 AM 32.2 °F 27.7 °F 26.1 °F 78% 30.44 in 10.0 mi SSE 4.6 mph - N/A   Overcast
8:35 AM 34.2 °F 28.2 °F 26.6 °F 74% 30.43 in 10.0 mi South 6.9 mph - N/A   Overcast
8:55 AM 34.9 °F 27.7 °F 27.1 °F 73% 30.44 in 10.0 mi South 9.2 mph - N/A   Overcast
9:15 AM 35.6 °F 28.6 °F 27.7 °F 73% 30.43 in 10.0 mi South 9.2 mph - N/A   Overcast
9:35 AM 36.7 °F 28.9 °F 27.1 °F 68% 30.42 in 10.0 mi South 11.5 mph 17.3 mph N/A   Overcast
9:55 AM 37.4 °F 30.8 °F 27.3 °F 67% 30.42 in 10.0 mi South 9.2 mph - N/A   Mostly Cloudy
10:15 AM 38.3 °F 30.9 °F 27.3 °F 65% 30.42 in 10.0 mi South 11.5 mph - N/A   Scattered Clouds
10:35 AM 39.2 °F 31.2 °F 27.3 °F 62% 30.42 in 10.0 mi South 13.8 mph 18.4 mph N/A   Scattered Clouds
10:55 AM 39.6 °F 32.1 °F 26.6 °F 60% 30.42 in 10.0 mi South 12.7 mph 18.4 mph N/A   Mostly Cloudy
11:35 AM 41.4 °F 34.3 °F 26.8 °F 56% 30.41 in 10.0 mi SSW 12.7 mph 17.3 mph N/A   Clear
11:55 AM 42.1 °F 34.9 °F 26.6 °F 54% 30.40 in 10.0 mi South 13.8 mph - N/A   Clear
12:15 PM 43.0 °F 37.2 °F 27.1 °F 54% 30.40 in 10.0 mi South 10.4 mph 16.1 mph N/A   Clear
12:55 PM 43.5 °F 37.1 °F 27.1 °F 53% 30.38 in 10.0 mi South 12.7 mph 18.4 mph N/A   Clear
1:15 PM 43.2 °F 36.2 °F 27.5 °F 54% 30.38 in 10.0 mi South 13.8 mph - N/A   Clear
1:35 PM 44.6 °F 37.8 °F 28.0 °F 52% 30.37 in 10.0 mi SSW 15.0 mph 19.6 mph N/A   Clear
1:55 PM 44.4 °F 39.5 °F 28.4 °F 53% 30.36 in 10.0 mi South 9.2 mph - N/A   Clear
2:15 PM 44.6 °F 38.8 °F 28.6 °F 53% 30.35 in 10.0 mi South 11.5 mph - N/A   Clear
2:35 PM 44.6 °F 38.4 °F 28.4 °F 53% 30.35 in 10.0 mi South 12.7 mph - N/A   Clear
2:55 PM 44.4 °F 38.6 °F 29.1 °F 55% 30.35 in 10.0 mi South 11.5 mph - N/A   Clear
3:15 PM 43.9 °F 37.9 °F 28.8 °F 55% 30.34 in 10.0 mi South 11.5 mph 17.3 mph N/A   Clear
3:35 PM 43.5 °F 37.9 °F 28.9 °F 56% 30.35 in 10.0 mi South 10.4 mph 16.1 mph N/A   Clear
3:55 PM 43.0 °F 37.2 °F 29.7 °F 59% 30.35 in 10.0 mi South 10.4 mph - N/A   Clear
4:15 PM 42.1 °F 37.1 °F 29.8 °F 62% 30.35 in 10.0 mi South 8.1 mph - N/A   Clear
4:35 PM 40.5 °F 36.5 °F 29.3 °F 64% 30.35 in 10.0 mi South 5.8 mph - N/A   Scattered Clouds
4:55 PM 40.3 °F 35.5 °F 28.9 °F 64% 30.35 in 10.0 mi South 6.9 mph - N/A   Scattered Clouds
5:35 PM 39.2 °F 35.0 °F 29.3 °F 68% 30.36 in 10.0 mi SSE 5.8 mph - N/A   Overcast
5:55 PM 37.9 °F 34.4 °F 29.1 °F 71% 30.35 in 10.0 mi SSE 4.6 mph - N/A   Overcast
6:15 PM 38.1 °F 33.7 °F 29.1 °F 70% 30.35 in 10.0 mi SSE 5.8 mph - N/A   Overcast
6:35 PM 37.6 °F 33.1 °F 28.6 °F 70% 30.35 in 10.0 mi SSE 5.8 mph - N/A   Overcast
6:55 PM 36.5 °F 31.0 °F 28.4 °F 72% 30.35 in 10.0 mi SSE 6.9 mph - N/A   Scattered Clouds
7:15 PM 35.8 °F 30.9 °F 28.2 °F 74% 30.35 in 10.0 mi SSE 5.8 mph - N/A   Scattered Clouds
7:35 PM 35.6 °F 32.8 °F 28.2 °F 75% 30.34 in 10.0 mi SSE 3.5 mph - N/A   Clear
7:55 PM 35.2 °F 30.3 °F 28.0 °F 75% 30.34 in 10.0 mi South 5.8 mph - N/A   Clear
8:15 PM 34.2 °F 30.0 °F 27.9 °F 78% 30.34 in 10.0 mi SSE 4.6 mph - N/A   Clear
8:35 PM 34.7 °F 29.6 °F 27.5 °F 75% 30.34 in 10.0 mi South 5.8 mph - N/A   Clear
8:55 PM 34.7 °F 28.1 °F 27.5 °F 75% 30.34 in 10.0 mi South 8.1 mph - N/A   Clear
9:15 PM 34.5 °F 29.4 °F 27.3 °F 75% 30.34 in 10.0 mi South 5.8 mph - N/A   Clear
9:35 PM 33.8 °F 29.6 °F 27.1 °F 77% 30.34 in 10.0 mi South 4.6 mph - N/A   Clear
9:55 PM 32.7 °F 28.3 °F 27.0 °F 79% 30.34 in 10.0 mi South 4.6 mph - N/A   Clear
10:15 PM 33.1 °F 28.7 °F 27.0 °F 78% 30.34 in 10.0 mi South 4.6 mph - N/A   Clear
10:35 PM 33.1 °F 28.7 °F 27.0 °F 78% 30.34 in 10.0 mi South 4.6 mph - N/A   Clear
10:55 PM 32.5 °F 29.3 °F 27.0 °F 80% 30.34 in 10.0 mi South 3.5 mph - N/A   Clear
11:15 PM 32.5 °F 27.1 °F 27.0 °F 80% 30.34 in 10.0 mi SSE 5.8 mph - N/A   Clear
11:35 PM 32.9 °F 27.5 °F 27.0 °F 79% 30.33 in 10.0 mi SSE 5.8 mph - N/A   Clear
11:55 PM 32.4 °F 27.9 °F 27.0 °F 80% 30.34 in 10.0 mi South 4.6 mph - N/A   Clear